This demonstration page uses our WeatherBlox Daily Observations layout. Learn more.

Left ArrowRight Arrow

Hourly Observations for May 22, 2020

Temp ( °F °C ) Dew Point ( °F °C ) Humidity (%) Winds ( mph kmh ) Pressure ( in mb ) Visibility ( mi km ) Precip ( " mm )
12:07 am 00:07 Mostly Cloudy 65 18.3 59 15 81 81 Calm 29.92 1013 10 16 0.00 0.00
12:52 am 00:52 Cloudy 64 17.8 59 15 84 84 SE 6 9 29.92 1013 10 16 0.00 0.00
1:52 am 01:52 Cloudy 64 17.8 60 15.6 87 87 SE 9 15 29.90 1012 10 16 0.00 0.00
2:52 am 02:52 Mostly Cloudy with Nearby Thunderstorms 63 17.2 59 15 87 87 ESE 7 11 29.88 1012 10 16 0.00 0.00
3:19 am 03:19 Cloudy with Nearby Thunderstorms 64 17.8 59 15 84 84 W 7 11 29.90 1013 10 16 0.00 0.00
3:29 am 03:29 Cloudy with Strong Thunderstorms 63 17.2 60 15.6 90 90 VRB 5 7 29.91 1013 3 4 0.00 0.00
3:49 am 03:49 Cloudy with Strong Thunderstorms 63 17 61 16 94 94 SE 10 17 29.89 1012 2 3 0.34 8.64
3:52 am 03:52 Cloudy with Strong Thunderstorms 62 16.7 60 15.6 93 93 SE 10 17 29.88 1012 2 3 0.40 10.16
3:57 am 03:57 Cloudy with Nearby Thunderstorms 62 16.7 61 16.1 96 96 SE 10 17 29.89 1012 3 5 0.03 0.76
4:14 am 04:14 Cloudy with Thunderstorms 62 16.7 61 16.1 96 96 ESE 8 13 29.88 1012 6 10 0.10 2.54
4:29 am 04:29 Cloudy with Nearby Thunderstorms 62 16.7 61 16.1 96 96 ESE 13 20 29.88 1012 8 13 0.10 2.54
4:45 am 04:45 Cloudy with Nearby Thunderstorms 62 16.7 60 15.6 93 93 ESE 15 24 29.87 1011 2 3 0.19 4.83
4:52 am 04:52 Cloudy with Nearby Thunderstorms 62 16.7 61 16.1 96 96 ESE 14 22 29.86 1011 2 3 0.36 9.14
5:07 am 05:07 Cloudy with Strong Thunderstorms 62 16.7 61 16.1 96 96 ESE 13 20 29.88 1012 1 2 0.34 8.64
5:23 am 05:23 Cloudy with Nearby Thunderstorms 62 16.7 61 16.1 96 96 E 13 20 29.88 1012 2 3 1.13 28.70
5:31 am 05:31 Mostly Cloudy with Heavy Rain 62 16.7 62 16.7 100 100 ESE 9 15 29.89 1012 1 2 1.37 34.80
5:52 am 05:52 Cloudy with Heavy Rain 62 16.7 61 16.1 96 96 ESE 14 22 29.87 1012 2 3 2.09 53.09
6:08 am 06:08 Cloudy with Heavy Rain 62 16.7 61 16.1 96 96 ESE 16 26 29.87 1011 3 5 0.24 6.10
6:15 am 06:15 Cloudy with Thunderstorms 62 16.7 61 16.1 96 96 ESE 17 28 29.87 1011 4 6 0.28 7.11
6:31 am 06:31 Cloudy with Nearby Thunderstorms 62 16.7 61 16.1 96 96 ESE 17 28 29.87 1011 3 4 0.41 10.41
6:42 am 06:42 Cloudy with Rain 62 16.7 62 16.7 100 100 SE 14 22 29.88 1012 4 6 0.52 13.21
6:52 am 06:52 Cloudy with Heavy Rain 62 16.7 61 16.1 96 96 ESE 18 30 29.87 1011 2 3 0.69 17.53
6:59 am 06:59 Cloudy with Heavy Rain 62 16.7 62 16.7 100 100 SE 12 19 29.88 1012 3 5 0.10 2.54
7:52 am 07:52 Cloudy with Light Rain 63 17.2 62 16.7 97 97 ESE 10 17 29.88 1012 10 16 0.21 5.33
8:08 am 08:08 Cloudy 63 17.2 62 16.7 97 97 SSE 10 17 29.91 1013 10 16 0.00 0.00
8:17 am 08:17 Cloudy 63 17.2 62 16.7 97 97 SSE 15 24 29.91 1013 10 16 0.00 0.00
8:41 am 08:41 Cloudy with Nearby Thunderstorms 62 16.7 62 16.7 100 100 SSE 12 19 29.90 1013 10 16 0.00 0.00
8:52 am 08:52 Cloudy with Thunderstorms 62 16.7 61 16.1 96 96 SE 17 28 29.88 1012 9 14 0.01 0.25
9:09 am 09:09 Cloudy with Nearby Thunderstorms 62 16.7 62 16.7 100 100 S 13 20 29.89 1012 7 11 0.00 0.00
9:26 am 09:26 Cloudy with Light Rain 63 17.2 62 16.7 97 97 SSE 15 24 29.89 1012 10 16 0.02 0.51
9:52 am 09:52 Cloudy with Light Rain 63 17.2 62 16.7 97 97 SSE 16 26 29.87 1012 7 11 0.04 1.02
10:26 am 10:26 Mostly Cloudy with Nearby Thunderstorms 63 17.2 62 16.7 97 97 SSE 17 28 29.87 1011 9 14 0.01 0.25
10:43 am 10:43 Mostly Cloudy with Strong Thunderstorms 63 17.2 62 16.7 97 97 SSE 12 19 29.88 1012 4 6 0.02 0.51
10:52 am 10:52 Windy with Storms Likely 63 17.2 62 16.7 97 97 WSW 21 33 29.94 1014 10 16 0.06 1.52
11:02 am 11:02 Cloudy with Strong Thunderstorms 63 17.2 62 16.7 97 97 W 10 17 29.95 1014 3 4 0.12 3.05
11:11 am 11:11 Cloudy with Strong Thunderstorms 62 16.7 61 16.1 96 96 WSW 13 20 29.96 1015 3 4 0.16 4.06
11:28 am 11:28 Cloudy with Thunderstorms 61 16.1 60 15.6 97 97 SW 12 19 29.96 1015 3 5 0.25 6.35
11:40 am 11:40 Cloudy with Thunderstorms 61 16.1 61 16.1 100 100 SW 10 17 29.96 1015 4 6 0.29 7.37
11:52 am 11:52 Cloudy with Thunderstorms 62 16.7 61 16.1 96 96 WSW 13 20 29.96 1014 4 6 0.34 8.64
12:06 pm 12:06 Cloudy with Nearby Thunderstorms 63 17.2 60 15.6 90 90 W 5 7 29.94 1014 4 6 0.05 1.27
12:35 pm 12:35 Cloudy with Light Rain 62 16.7 60 15.6 93 93 E 7 11 29.88 1012 10 16 0.09 2.29
12:52 pm 12:52 Partly Cloudy 62 16.7 60 15.6 93 93 ENE 12 19 29.86 1011 10 16 0.09 2.29
1:52 pm 13:52 Sunny 65 18.3 62 16.7 90 90 ESE 12 19 29.82 1010 10 16 0.00 0.00
2:52 pm 14:52 Sunny 72 22.2 63 17.2 73 73 SE 7 11 29.82 1010 10 16 0.00 0.00
3:52 pm 15:52 Cloudy 73 22.8 63 17.2 71 71 S 13 20 29.83 1010 10 16 0.00 0.00
4:52 pm 16:52 Cloudy 72 22.2 63 17.2 73 73 S 13 20 29.83 1010 10 16 0.00 0.00
5:52 pm 17:52 Partly Cloudy 72 22.2 63 17.2 73 73 S 17 28 29.82 1010 10 16 0.00 0.00
6:52 pm 18:52 Sunny 71 21.7 64 17.8 79 79 SSE 12 19 29.82 1010 10 16 0.00 0.00
7:52 pm 19:52 Sunny 68 20 63 17.2 84 84 SSE 8 13 29.83 1010 10 16 0.00 0.00
8:52 pm 20:52 Cloudy 67 19.4 62 16.7 84 84 SSE 10 17 29.83 1010 10 16 0.00 0.00
9:52 pm 21:52 Clear 65 18.3 62 16.7 90 90 SSE 9 15 29.85 1011 10 16 0.00 0.00
10:52 pm 22:52 Clear 64 17.8 62 16.7 93 93 SSE 7 11 29.86 1011 10 16 0.00 0.00
11:52 pm 23:52 Clear 63 17.2 62 16.7 97 97 SSE 8 13 29.85 1011 10 16 0.00 0.00

Powered by AerisWeather